Regional Weather Roundup
Issued by NWS Albany, NY

Home | Current Version | Previous Version | Text Only | Print | Product List | Glossary On
Versions: 1 2 3 4 5 6 7 8 9 10 11 12 13 14 15 16 17 18 19 20 21 22 23 24 25 26 27 28 29 30 31 32 33 34 35 36 37 38 39 40 41 42 43 44 45 46 47 48 49 50
000
ASUS41 KALY 201810
RWRALY

NEW YORK STATE HOURLY WEATHER ROUNDUP
NATIONAL WEATHER SERVICE ALBANY NY
200 PM EDT MON APR 20 2015

NOTE: "FAIR" INDICATES FEW OR NO CLOUDS BELOW 12,000 FEET WITH NO
SIGNIFICANT WEATHER AND/OR NO OBSTRUCTIONS TO VISIBILITY.

NYZ032-033-038>043-046>054-057>066-NYZ062>081-201900-
EAST


CITY           SKY/WX    TMP DP  RH WIND       PRES   REMARKS
ALBANY         LGT RAIN  52  45  77 SE12G21   29.81F
GLENS FALLS    CLOUDY    48  43  82 NW5       29.84S
POUGHKEEPSIE   LGT RAIN  55  51  86 E5        29.75F FOG
NEWBURGH       LGT RAIN  52  52 100 SE12G23   29.75S FOG
MONTGOMERY     CLOUDY    53  50  90 NE10G16   29.74F
WHITE PLAINS   RAIN      51  50  96 E9        29.73F VSB 1
ISLIP          LGT RAIN  52  50  93 SE24G37   29.73F FOG
NEW YORK CITY  LGT RAIN  57  54  89 SE15G26   29.70F FOG
CENTRAL PARK   CLOUDY    56  55  97 VRB7      29.72F FOG
$$

NYZ005>009-017-018-044>046-055-056-201900-
CENTRAL


CITY           SKY/WX    TMP DP  RH WIND       PRES   REMARKS
FULTON         SUNNY     54  46  74 E13G25    29.59F
SYRACUSE       CLOUDY    51  45  79 E15       29.62F
ROME           CLOUDY    51  45  79 E17G29    29.70F
ELMIRA         CLOUDY    60  53  77 SE14      29.59F
BINGHAMTON     CLOUDY    52  47  83 SE15G25   29.65S
MONTICELLO     CLOUDY    46  46 100 E13       29.74S
$$

NYZ026>034-041>043-201900-
NORTH


CITY           SKY/WX    TMP DP  RH WIND       PRES   REMARKS
WATERTOWN      SUNNY     59  47  64 S25G38    29.56F
FORT DRUM      NOT AVBL
MASSENA        RAIN      46  43  89 E12       29.71F FOG
SARANAC LAKE   CLOUDY    47  39  74 S12G25    29.70F
PLATTSBURGH    CLOUDY    47  37  68 S21G36    29.83F
$$

NYZ001>004-010>016-019>021-201900-
WEST


CITY           SKY/WX    TMP DP  RH WIND       PRES   REMARKS
NIAGARA FALLS  LGT RAIN  61  52  72 S10       29.41F
BUFFALO        PTSUNNY   69  52  54 S16       29.42F
DUNKIRK        CLOUDY    69  53  56 S20G28    29.40F
JAMESTOWN      CLOUDY    63  52  67 S12       29.45F
WELLSVILLE     MOSUNNY   64  50  60 S15G23    29.53S
ROCHESTER      MOSUNNY   69  51  52 S17G28    29.48F
PENN YAN       CLOUDY    61  51  70 S18G26    29.56F
$$

             KEY
       WCI = WIND CHILL INDEX
       VSB = VISIBILITY
       HX  = HEAT INDEX
$$


USA.gov is the U.S. government's official web portal to all federal, state and local government web resources and services.